EDT,Max TemperatureF,Mean TemperatureF,Min TemperatureF,Max Dew PointF,MeanDew PointF,Min DewpointF,Max Humidity, Mean Humidity, Min Humidity, Max Sea Level PressureIn, Mean Sea Level PressureIn, Min Sea Level PressureIn, Max VisibilityMiles, Mean VisibilityMiles, Min VisibilityMiles, Max Wind SpeedMPH, Mean Wind SpeedMPH, Max Gust SpeedMPH,PrecipitationIn, CloudCover, Events, WindDirDegrees
2013-9-1,81,73,66,68,66,64,94,81,60,29.89,29.83,29.78,10,9,3,9,2,,0.00,2,,200
2013-9-2,82,74,66,70,66,63,94,84,62,29.89,29.83,29.77,10,8,1,20,4,26,0.46,6,Rain-Thunderstorm,226
2013-9-3,77,68,57,64,61,54,100,82,51,30.04,29.92,29.83,10,6,0,12,2,16,0.00,4,Fog,319
2013-9-4,77,64,54,57,55,52,100,83,44,30.16,30.10,30.04,10,5,0,7,1,,0.00,3,Fog,293
2013-9-5,78,68,57,61,57,52,93,74,50,30.18,30.13,30.10,10,10,9,10,3,,0.01,2,,307
2013-9-6,75,60,48,53,49,44,93,69,35,30.24,30.18,30.13,10,10,10,7,2,,0.00,0,,4
2013-9-7,78,62,46,57,50,45,100,80,36,30.13,30.08,29.99,10,6,0,10,1,,0.01,1,Fog,258
2013-9-8,82,72,62,66,62,57,97,75,56,30.02,29.96,29.94,10,9,3,8,2,,0.00,4,Rain,342
2013-9-9,84,72,60,69,63,57,100,85,55,30.11,30.06,30.01,10,4,0,10,1,,0.00,2,Fog,207
2013-9-10,86,78,71,72,68,64,91,75,59,30.17,30.12,30.07,9,8,4,10,4,,0.00,2,,206
2013-9-11,84,76,69,72,69,66,94,84,67,30.18,30.12,30.04,10,6,2,8,1,,0.00,1,Rain,207
2013-9-12,82,73,66,70,67,63,94,85,69,30.02,29.92,29.82,8,5,1,15,6,33,0.28,6,Rain,225
2013-9-13,69,61,51,64,54,46,94,79,49,30.02,29.89,29.80,10,8,2,15,7,28,0.27,7,Rain,319
2013-9-14,64,53,42,49,45,42,100,82,46,30.17,30.11,30.04,10,6,0,7,1,,0.00,3,Fog,325
2013-9-15,73,58,42,58,48,40,100,83,49,30.19,30.14,30.07,10,7,0,13,1,17,0.01,1,Fog,231
2013-9-16,68,60,55,58,55,52,94,85,59,30.27,30.16,30.04,10,7,2,10,4,,0.25,7,Rain,356
2013-9-17,71,58,46,54,49,43,100,81,45,30.37,30.31,30.23,10,6,0,8,3,,0.01,2,Fog,45
2013-9-18,72,58,46,61,54,45,94,80,57,30.24,30.18,30.12,10,9,2,6,1,,0.01,3,Rain,212
2013-9-19,78,68,62,63,60,57,96,84,52,30.17,30.12,30.03,10,7,2,6,1,,0.01,6,Rain,169
2013-9-20,75,68,62,68,65,60,94,88,74,30.05,29.98,29.85,10,6,2,8,2,,0.23,5,Rain,208
2013-9-21,71,63,55,66,60,54,96,89,81,29.84,29.76,29.68,10,6,1,14,3,24,0.90,6,Rain,217
2013-9-22,64,58,53,55,54,48,100,91,56,30.02,29.88,29.81,10,5,0,10,1,,0.00,7,Fog,322
2013-9-23,64,52,45,46,43,41,86,71,56,30.13,30.11,30.07,10,8,1,7,2,,0.00,5,,24
2013-9-24,70,53,37,50,43,36,100,86,45,30.11,30.06,29.97,10,5,0,6,1,,0.00,0,Fog,10
2013-9-25,75,62,48,60,54,46,97,82,52,29.96,29.91,29.86,10,8,2,5,0,,0.00,0,,75
2013-9-26,75,64,52,58,54,47,100,85,39,30.07,29.98,29.91,10,6,0,9,2,,0.00,4,Fog,20
2013-9-27,75,60,44,55,48,43,100,82,41,30.18,30.13,30.06,10,6,0,7,1,,0.01,1,Fog,352
2013-9-28,73,62,50,55,51,48,93,71,46,30.24,30.18,30.14,10,10,9,8,2,,0.00,1,,82
2013-9-29,73,62,50,57,52,48,100,76,50,30.14,30.08,30.01,10,9,2,5,1,,0.00,1,,182
2013-9-30,69,60,53,60,55,52,100,87,68,30.09,30.04,30.00,10,7,1,4,0,,0.00,7,,180